Weather History for Cortez, CO

Change the Weather History Date:

Tuesday, July 16, 2013

  Actual Average Record
Temperature  
Mean Temperature 71 °F 72 °F  
Max Temperature 83 °F 91 °F 100 °F (2007)
Min Temperature 58 °F 53 °F 46 °F (1997)
Degree Days  
Heating Degree Days 0 0  
Month to date heating degree days 0 0  
Since 1 June heating degree days 12 75  
Since 1 July heating degree days 0 0  
Cooling Degree Days 6 7  
Month to date cooling degree days 173 93  
Year to date cooling degree days 300 156  
Since 1 June cooling degree days 300 151  
Growing Degree Days 20 (Base 50)    
Moisture  
Dew Point 54 °F    
Average Humidity 64    
Maximum Humidity 90    
Minimum Humidity 37    
Precipitation  
Precipitation 0.00 in 0.04 in 0.57 in (2000)
Month to date precipitation 0.26 0.33  
Year to date precipitation 3.59 5.95  
Sea Level Pressure  
Sea Level Pressure 30.01 in    
Wind  
Wind Speed 3 mph (East)    
Max Wind Speed 20 mph    
Max Gust Speed 23 mph    
Visibility 10 miles    
Events Thunderstorm    
T = Trace of Precipitation, MM = Missing Value Source: NWS Daily Summary

Daily Weather History Graph

Daily Weather History Graph

Search for Another Location

Airport:

Trip Planner

Search our weather history database for the weather conditions in past years. The results will help you decide how hot, cold, wet, or windy it might be!

Date:

Astronomy

Jul. 16, 2013 Rise Set
Actual Time 6:06 AM MDT 8:34 PM MDT
Civil Twilight 5:36 AM MDT 9:04 PM MDT
Nautical Twilight 4:59 AM MDT 9:41 PM MDT
Astronomical Twilight 4:18 AM MDT 10:22 PM MDT
Moon 2:22 PM MDT (7/16) 12:34 AM MDT (7/16)
Length of Visible Light 15h 27m
Length of Day
14h 27m
First Quarter, 57% of the Moon is Illuminated
Jul 16
First Quarter
Jul 22
Full
Jul 29
Last Quarter
Aug 6
New
Aug 14
First Quarter

Hourly Weather History & Observations

Time (MDT) Temp. Heat Index Dew Point Humidity Pressure Visibility Wind Dir Wind Speed Gust Speed Precip Events Conditions
12:53 AM 64.9 °F - 57.9 °F 78% 29.96 in 10.0 mi Calm Calm - N/A   Overcast
1:53 AM 64.0 °F - 59.0 °F 84% 29.98 in 10.0 mi ENE 3.5 mph - N/A   Overcast
2:53 AM 63.0 °F - 57.9 °F 84% 29.99 in 10.0 mi ESE 3.5 mph - N/A   Overcast
3:53 AM 61.0 °F - 57.0 °F 87% 30.00 in 10.0 mi Calm Calm - N/A   Clear
4:53 AM 59.0 °F - 55.9 °F 90% 30.02 in 10.0 mi Calm Calm - N/A   Mostly Cloudy
5:53 AM 59.0 °F - 55.9 °F 90% 30.02 in 10.0 mi NW 3.5 mph - N/A   Partly Cloudy
6:53 AM 60.1 °F - 55.9 °F 86% 30.03 in 10.0 mi Calm Calm - N/A   Clear
7:53 AM 64.9 °F - 55.9 °F 73% 30.01 in 10.0 mi Calm Calm - N/A   Clear
8:53 AM 66.9 °F - 53.1 °F 61% 30.03 in 10.0 mi Variable 4.6 mph - N/A   Mostly Cloudy
9:53 AM 69.1 °F - 53.1 °F 57% 30.04 in 10.0 mi WNW 4.6 mph - N/A   Overcast
10:53 AM 71.1 °F - 54.0 °F 55% 30.04 in 10.0 mi SW 4.6 mph - N/A   Overcast
11:53 AM 73.0 °F - 53.1 °F 49% 30.04 in 10.0 mi Calm Calm - N/A   Mostly Cloudy
12:53 PM 73.9 °F - 53.1 °F 48% 30.02 in 10.0 mi Calm Calm - N/A   Overcast
1:53 PM 77.0 °F - 53.1 °F 43% 29.99 in 10.0 mi Calm Calm - N/A   Partly Cloudy
2:53 PM 79.0 °F - 52.0 °F 39% 29.97 in 10.0 mi Calm Calm - N/A   Scattered Clouds
3:53 PM 81.0 °F 80.5 °F 54.0 °F 39% 29.94 in 10.0 mi ESE 8.1 mph - N/A   Scattered Clouds
4:53 PM 79.0 °F - 55.0 °F 44% 29.96 in 10.0 mi NE 10.4 mph - N/A   Overcast
5:53 PM 78.1 °F - 53.1 °F 42% 29.94 in 10.0 mi East 4.6 mph - N/A   Partly Cloudy
6:53 PM 79.0 °F - 50.0 °F 36% 29.93 in 10.0 mi Variable 3.5 mph - N/A   Partly Cloudy
7:53 PM 79.0 °F - 50.0 °F 36% 29.94 in 10.0 mi Calm Calm - N/A   Scattered Clouds
8:22 PM 75.2 °F - 51.8 °F 44% 30.19 in 10.0 mi SSE 18.4 mph - N/A Thunderstorm Thunderstorm
8:41 PM 73.4 °F - 51.8 °F 47% 30.20 in 10.0 mi SSE 12.7 mph - N/A   Overcast
8:53 PM 72.0 °F - 54.0 °F 53% 29.97 in 10.0 mi South 12.7 mph - N/A   Overcast
9:53 PM 71.1 °F - 55.0 °F 57% 29.99 in 10.0 mi NE 5.8 mph - N/A   Partly Cloudy
10:53 PM 69.1 °F - 55.0 °F 61% 30.01 in 10.0 mi ENE 5.8 mph - N/A   Overcast
11:53 PM 68.0 °F - 54.0 °F 61% 30.03 in 10.0 mi NE 5.8 mph - N/A   Overcast